GW0996 Weather Reports


time (UTC)temp
F
wind
direction
speed
knots
gust
knots
rain 1hr
in
rain 24hr
in
rain mn
in
humidity
%
barometer
mb
20260507010446 55 311 0.0 0.0 0.00 0.04 0.00 85 1012.3
20260507005951 55 311 0.0 0.0 0.00 0.04 0.00 85 1012.3
20260507004947 55 311 0.0 0.0 0.00 0.04 0.00 83 1012.4
20260507004448 56 311 0.0 0.0 0.00 0.04 0.00 82 1012.3
20260507003950 56 311 0.0 0.9 0.00 0.04 0.00 80 1012.3
20260507002948 57 311 0.0 0.0 0.00 0.04 0.00 76 1012.2
20260507002449 57 311 0.0 0.0 0.00 0.04 0.00 76 1012.4
20260507001951 57 311 0.0 0.0 0.00 0.04 0.00 74 1012.3
20260507001448 57 311 0.0 1.7 0.00 0.04 0.00 74 1012.3
20260507000936 57 311 0.0 2.6 0.00 0.04 0.00 75 1012.3
20260507000435 57 311 0.0 2.6 0.00 0.04 0.00 74 1012.2
20260506235926 57 312 0.9 1.7 0.00 0.04 0.00 74 1012.4
20260506234926 57 308 1.7 5.2 0.00 0.04 0.00 74 1012.4
20260506234414 57 310 0.9 5.2 0.00 0.04 0.00 74 1012.5
20260506233913 57 326 1.7 3.5 0.00 0.04 0.00 74 1012.4
20260506233411 58 312 0.9 2.6 0.00 0.04 0.00 73 1012.4
20260506232903 58 312 0.9 2.6 0.00 0.04 0.00 72 1012.5
20260506231903 58 318 1.7 2.6 0.00 0.04 0.00 71 1012.5
20260506231402 58 316 1.7 2.6 0.00 0.04 0.00 72 1012.3
20260506230400 58 314 0.0 1.7 0.00 0.04 0.00 73 1012.6
20260506225359 58 313 1.7 3.5 0.00 0.04 0.00 70 1012.5
20260506224902 58 308 1.7 3.5 0.00 0.04 0.00 71 1012.2
20260506224401 58 314 1.7 3.5 0.00 0.04 0.00 73 1012.3
20260506223903 58 320 1.7 5.2 0.00 0.04 0.00 73 1012.3
20260506223349 58 313 0.9 5.2 0.00 0.04 0.00 73 1012.4
20260506222846 58 326 2.6 5.2 0.00 0.05 0.00 73 1012.5
20260506222348 58 322 0.9 5.2 0.00 0.05 0.00 74 1012.6
20260506221849 58 313 1.7 7.0 0.00 0.05 0.00 75 1012.6
20260506221348 58 315 1.7 7.0 0.00 0.06 0.00 75 1012.4
20260506220849 59 308 3.5 6.1 0.00 0.06 0.00 75 1012.2
20260506220350 59 317 4.3 6.1 0.00 0.06 0.00 76 1012.4
20260506215848 59 315 1.7 6.1 0.00 0.07 0.06 75 1012.2
20260506215350 59 317 0.9 5.2 0.00 0.07 0.06 76 1012.4
20260506214851 59 310 2.6 5.2 0.00 0.07 0.06 75 1012.3
20260506214349 59 329 2.6 3.5 0.00 0.07 0.06 76 1012.3
20260506213849 59 318 1.7 6.1 0.00 0.07 0.06 76 1012.2
20260506211851 59 311 0.0 5.2 0.00 0.07 0.06 79 1012.0
20260506211347 59 313 0.9 5.2 0.00 0.07 0.06 78 1012.1
20260506210849 59 330 3.5 5.2 0.00 0.07 0.06 78 1012.1
20260506210349 59 314 0.9 3.5 0.00 0.07 0.06 79 1012.0
20260506205835 59 319 0.0 2.6 0.00 0.07 0.06 80 1012.1
20260506205336 59 313 0.0 2.6 0.00 0.07 0.06 79 1011.9
20260506204834 59 326 0.0 2.6 0.00 0.07 0.06 79 1011.9
20260506204311 59 323 0.0 3.5 0.00 0.07 0.06 79 1012.0
20260506203300 60 313 0.9 2.6 0.00 0.07 0.06 79 1011.8
20260506202801 60 306 0.0 2.6 0.00 0.07 0.06 79 1011.6
20260506202306 60 296 0.9 7.0 0.00 0.07 0.06 79 1011.6
20260506201300 60 310 0.9 7.8 0.00 0.07 0.06 79 1011.5
20260506200803 60 302 2.6 7.8 0.00 0.07 0.06 79 1011.7
20260506200302 60 312 0.9 1.7 0.00 0.07 0.06 81 1011.6
20260506195759 60 309 0.0 1.7 0.00 0.07 0.06 82 1011.6
20260506195251 60 309 0.0 3.5 0.00 0.07 0.06 82 1011.4
20260506194747 60 317 0.0 3.5 0.00 0.07 0.06 81 1011.2
20260506193223 60 342 0.0 0.9 0.00 0.07 0.06 82 1011.2
20260506192708 60 333 0.0 1.7 0.00 0.08 0.06 82 1011.2
20260506192211 60 333 0.0 1.7 0.00 0.09 0.06 82 1011.2
20260506191655 60 319 0.9 2.6 0.00 0.10 0.06 81 1011.1
20260506191156 61 10 0.0 3.5 0.00 0.11 0.06 81 1010.9
20260506190656 61 315 1.7 3.5 0.00 0.13 0.06 81 1010.9
20260506190155 61 339 0.0 1.7 0.00 0.14 0.06 82 1010.9
20260506185643 61 358 0.0 2.6 0.00 0.15 0.06 81 1010.7
20260506185145 61 4 0.0 2.6 0.00 0.16 0.06 81 1010.7
20260506184645 61 309 0.9 2.6 0.00 0.17 0.06 79 1010.7
20260506184144 62 1 0.0 2.6 0.00 0.18 0.06 77 1010.7
20260506183643 62 42 0.9 2.6 0.00 0.19 0.06 75 1010.6
20260506183144 62 300 0.0 1.7 0.00 0.20 0.06 74 1010.5
20260506181646 63 314 0.0 2.6 0.00 0.24 0.06 72 1010.3
20260506181145 63 315 0.0 2.6 0.00 0.25 0.06 72 1010.3
20260506180646 63 314 0.9 2.6 0.00 0.28 0.06 71 1010.4
20260506180145 63 313 0.0 2.6 0.00 0.29 0.06 71 1010.5
20260506175648 64 318 0.0 3.5 0.00 0.31 0.06 70 1010.2
20260506175145 64 322 0.0 3.5 0.00 0.31 0.06 69 1010.3
20260506174645 66 322 1.7 3.5 0.00 0.31 0.06 68 1010.1
20260506174145 66 233 0.0 0.9 0.00 0.31 0.06 69 1010.0
20260506173648 66 232 0.0 2.6 0.00 0.31 0.06 67 1010.1
20260506173144 67 226 0.0 2.6 0.00 0.31 0.06 67 1009.9
20260506172647 67 238 0.0 1.7 0.00 0.31 0.06 66 1009.9
20260506172143 67 237 0.9 3.5 0.00 0.31 0.06 66 1009.7
20260506171643 67 206 0.0 3.5 0.00 0.32 0.06 65 1009.7
20260506171146 68 203 0.0 0.9 0.00 0.32 0.06 65 1009.8
20260506170645 68 222 0.0 1.7 0.00 0.32 0.06 64 1009.5
20260506170142 68 203 0.0 1.7 0.00 0.34 0.06 63 1009.5
20260506165645 68 232 0.0 2.6 0.00 0.39 0.06 62 1009.5
20260506165144 68 231 0.9 2.6 0.00 0.39 0.06 62 1009.4
20260506164146 69 219 0.0 1.7 0.00 0.48 0.06 62 1009.5
20260506163645 69 189 0.9 2.6 0.00 0.50 0.06 61 1009.5
20260506163144 69 183 1.7 2.6 0.00 0.60 0.06 61 1009.3
20260506162646 69 177 0.0 1.7 0.00 0.68 0.06 63 1009.0
20260506162144 69 236 0.9 2.6 0.00 0.75 0.06 62 1009.1
20260506161149 69 249 0.0 6.1 0.00 1.05 0.06 62 1009.0
20260506160646 69 158 0.9 6.1 0.00 1.24 0.06 61 1009.2
20260506160145 69 254 0.9 2.6 0.00 1.46 0.06 61 1009.3
20260506155645 69 238 0.0 1.7 0.00 1.59 0.06 62 1009.1
20260506155145 69 252 0.0 2.6 0.00 1.65 0.06 63 1009.2
20260506154644 69 203 1.7 3.5 0.00 1.81 0.06 62 1009.1
20260506154145 69 212 1.7 3.5 0.00 2.02 0.06 61 1009.1
20260506153644 69 258 0.9 2.6 0.00 2.13 0.06 61 1009.1
20260506153143 70 259 0.0 2.6 0.00 2.21 0.06 61 1009.1
20260506152644 69 255 0.0 5.2 0.00 2.40 0.06 63 1009.1
20260506152143 69 231 0.9 5.2 0.00 2.49 0.06 61 1009.2
20260506151642 70 215 1.7 3.5 0.00 2.49 0.06 60 1009.3
20260506151145 70 63 0.9 2.6 0.00 2.50 0.06 61 1009.4
20260506150643 69 234 0.9 2.6 0.00 2.50 0.06 60 1009.3
20260506150144 70 209 0.9 2.6 0.00 2.50 0.06 60 1009.4
20260506145644 70 136 0.0 2.6 0.00 2.50 0.06 60 1009.2
20260506145143 70 244 0.0 3.5 0.00 2.50 0.06 59 1009.4
20260506144643 70 239 0.0 3.5 0.00 2.50 0.06 59 1009.5
20260506144144 70 215 0.0 2.6 0.00 2.50 0.06 60 1009.4
20260506143642 70 239 1.7 1.7 0.00 2.50 0.06 60 1009.3
20260506143142 70 247 0.9 1.7 0.00 2.51 0.06 59 1009.3
20260506142647 70 232 0.9 2.6 0.00 2.51 0.06 61 1009.4
20260506142132 70 149 0.9 3.5 0.00 2.52 0.06 62 1009.6
20260506141132 71 210 0.9 1.7 0.00 2.52 0.06 60 1009.5
20260506140621 70 229 0.0 3.5 0.00 2.52 0.06 59 1009.3
20260506140119 70 247 0.0 3.5 0.00 2.52 0.06 60 1009.5
20260506135619 70 146 2.6 3.5 0.00 2.52 0.06 59 1009.3
20260506135106 70 243 0.9 3.5 0.00 2.52 0.06 60 1009.4
20260506134607 70 216 1.7 5.2 0.00 2.52 0.06 59 1009.4
20260506134111 70 178 0.9 5.2 0.00 2.52 0.06 60 1009.5
20260506133556 69 208 0.9 6.1 0.00 2.52 0.06 59 1009.6
20260506132055 72 151 0.9 5.2 0.00 2.52 0.06 57 1009.6
20260506131055 71 267 2.6 2.6 0.00 2.52 0.06 60 1009.8
20260506130556 71 222 0.0 2.6 0.00 2.52 0.06 59 1010.0
20260506130055 70 230 1.7 3.5 0.00 2.52 0.06 59 1010.0
20260506125055 69 232 1.7 3.5 0.00 2.52 0.06 61 1010.3
20260506124555 69 224 0.9 3.5 0.00 2.52 0.06 63 1010.4
20260506124054 71 249 1.7 3.5 0.00 2.52 0.06 63 1010.2
20260506123555 69 263 1.7 3.5 0.00 2.52 0.06 63 1010.3
20260506122054 69 259 1.7 3.5 0.00 2.52 0.06 63 1010.5
20260506121554 70 208 1.7 3.5 0.00 2.52 0.06 63 1010.3
20260506121054 69 258 0.0 2.6 0.00 2.52 0.06 66 1010.1
20260506120054 68 193 0.9 3.5 0.00 2.52 0.06 67 1010.3
20260506115554 68 102 1.7 3.5 0.00 2.52 0.06 67 1010.4
20260506114554 68 192 1.7 5.2 0.00 2.52 0.06 67 1010.3
20260506114056 68 226 2.6 5.2 0.00 2.52 0.06 65 1010.2
20260506113554 68 49 0.9 5.2 0.00 2.52 0.06 67 1010.4
20260506113055 68 205 1.7 5.2 0.00 2.52 0.06 65 1010.3
20260506112555 69 200 0.9 5.2 0.00 2.52 0.06 65 1010.3
20260506112058 69 193 0.0 3.5 0.00 2.52 0.06 65 1010.2
20260506111554 69 145 1.7 3.5 0.00 2.52 0.06 66 1010.2
20260506111055 69 222 0.0 2.6 0.00 2.52 0.06 66 1010.4
20260506110553 69 168 0.9 2.6 0.00 2.52 0.06 64 1010.4
20260506110055 69 151 0.0 2.6 0.00 2.52 0.06 68 1010.4
20260506105055 69 230 0.0 2.6 0.00 2.52 0.06 68 1010.8
20260506104055 69 197 0.0 1.7 0.00 2.52 0.06 68 1010.7
20260506103055 68 201 0.9 3.5 0.00 2.52 0.06 68 1010.9
20260506102057 68 129 0.0 6.1 0.00 2.52 0.06 73 1010.8
20260506101554 68 138 3.5 5.2 0.00 2.52 0.06 70 1010.9
20260506101100 68 234 0.0 1.7 0.00 2.52 0.06 68 1010.8
20260506100555 67 236 0.0 1.7 0.00 2.52 0.06 67 1010.9
20260506100056 66 145 0.0 1.7 0.00 2.52 0.06 74 1010.8
20260506095556 65 203 0.0 3.5 0.00 2.52 0.06 75 1011.1
20260506095056 64 155 0.0 3.5 0.00 2.52 0.06 76 1010.9
20260506094555 63 120 0.9 2.6 0.00 2.52 0.06 75 1010.8
20260506094057 63 175 0.0 2.6 0.00 2.52 0.06 75 1011.1
20260506093057 62 231 0.9 2.6 0.00 2.52 0.06 77 1010.9
20260506092554 62 239 0.0 0.9 0.00 2.52 0.06 82 1011.0
20260506091555 62 238 0.0 2.6 0.00 2.52 0.06 83 1011.0
20260506090555 62 213 0.0 7.0 0.00 2.52 0.06 81 1010.8
20260506090057 62 136 0.0 7.0 0.00 2.52 0.06 83 1010.8
20260506085555 62 247 0.9 5.2 0.00 2.52 0.06 82 1010.4
20260506085058 61 233 0.9 3.5 0.00 2.52 0.06 84 1010.8
20260506084555 60 132 0.9 3.5 0.00 2.52 0.06 85 1011.0
20260506084057 60 129 1.7 5.2 0.00 2.52 0.06 85 1010.6
20260506083555 60 140 1.7 5.2 0.00 2.52 0.06 86 1010.6
20260506083057 60 103 1.7 2.6 0.00 2.52 0.06 85 1010.8
20260506082055 59 168 0.0 5.2 0.00 2.52 0.06 86 1010.6
20260506081554 59 172 1.7 3.5 0.00 2.52 0.06 86 1010.8
20260506081056 59 176 0.0 3.5 0.00 2.52 0.06 87 1010.7
20260506073055 59 289 0.9 2.6 0.00 2.52 0.06 85 1010.3
20260506072554 59 158 0.9 3.5 0.00 2.52 0.06 85 1010.6
20260506072056 59 299 0.9 3.5 0.00 2.52 0.06 86 1010.5
20260506071056 59 289 3.5 3.5 0.00 2.52 0.06 85 1010.3
20260506070554 59 252 0.9 3.5 0.00 2.52 0.06 85 1010.2
20260506062056 58 175 0.0 6.1 0.03 2.53 0.06 87 1010.4
20260506061553 58 247 0.9 6.1 0.03 2.53 0.06 87 1010.6
20260506061056 58 231 0.0 2.6 0.03 2.53 0.06 88 1010.4
20260506060557 58 258 0.9 5.2 0.03 2.53 0.06 88 1010.3
20260506050553 58 352 0.0 3.5 0.00 2.56 0.03 85 1010.2
20260506045045 58 228 0.9 3.5 0.00 2.57 0.03 84 1010.5
20260506044044 58 23 0.0 3.5 0.00 2.57 0.03 85 1010.2
20260506043543 58 286 0.0 3.5 0.00 2.57 0.03 85 1010.3
20260506042031 58 295 0.0 3.5 0.00 2.59 0.03 86 1010.3
20260506041530 58 186 0.0 5.2 0.00 2.60 0.03 85 1010.3
20260506041032 58 69 1.7 5.2 0.00 2.62 0.03 87 1010.3
20260506040518 58 105 1.7 3.5 0.00 2.62 0.03 87 1010.3
20260506040018 58 250 0.0 0.9 0.00 2.63 0.03 88 1010.5
20260506035517 58 266 0.9 1.7 0.00 2.63 0.03 87 1010.6
20260506034953 58 274 1.7 1.7 0.00 2.63 0.03 86 1010.6
20260506034456 58 271 0.9 1.7 0.00 2.63 0.03 86 1010.5
20260506033956 59 151 0.0 1.7 0.00 2.63 0.03 86 1010.6
20260506033455 59 152 0.9 1.7 0.00 2.63 0.03 86 1010.5
20260506032956 59 137 0.0 3.5 0.00 2.64 0.03 86 1010.4
20260506032443 59 159 0.0 3.5 0.00 2.64 0.03 86 1010.5
20260506031944 59 245 0.0 1.7 0.00 2.64 0.03 87 1010.6
20260506031442 59 233 0.0 1.7 0.00 2.64 0.03 87 1010.7
20260506030917 59 242 0.0 1.7 0.00 2.64 0.03 86 1010.7
20260506025919 59 113 0.9 5.2 0.00 2.64 0.03 87 1010.6
20260506025406 59 157 1.7 5.2 0.00 2.64 0.03 89 1010.5
20260506024907 59 100 0.9 5.2 0.01 2.64 0.03 90 1010.5
20260506024406 59 102 1.7 5.2 0.01 2.65 0.03 90 1010.5
20260506023854 59 312 0.9 5.2 0.01 2.66 0.03 90 1010.6
20260506023355 59 65 0.9 5.2 0.01 2.67 0.03 89 1010.7
20260506022855 59 211 0.0 3.5 0.01 2.67 0.03 90 1010.8
20260506022354 59 129 0.0 3.5 0.01 2.69 0.03 89 1010.6
20260506021356 59 222 0.0 1.7 0.01 2.70 0.03 90 1010.5
20260506020857 59 192 0.9 1.7 0.01 2.71 0.03 90 1010.5
20260506020356 59 247 0.0 1.7 0.01 2.72 0.03 91 1010.8
20260506015856 59 277 0.0 6.1 0.01 2.73 0.03 90 1010.8
20260506015357 59 348 3.5 6.1 0.01 2.73 0.03 90 1010.6
20260506014855 59 123 0.9 2.6 0.00 2.72 0.02 90 1010.6
20260506014344 59 118 0.9 2.6 0.00 2.73 0.02 90 1010.2
20260506013842 59 179 0.0 1.7 0.00 2.73 0.02 90 1010.4
20260506012842 59 30 0.9 3.5 0.00 2.74 0.02 90 1010.7
20260506012343 59 314 0.9 5.2 0.00 2.75 0.02 91 1010.7
20260506010841 59 87 0.0 2.6 0.00 2.77 0.02 91 1011.0